Weather History for KCSV - March, 2014

Change the Weather History Date:

Thursday, March 6, 2014

  Actual Average Record
Temperature  
Mean Temperature 41 °F 44 °F  
Max Temperature 52 °F 54 °F 75 °F (1956)
Min Temperature 29 °F 35 °F 1 °F (1960)
Degree Days  
Heating Degree Days 24    
Month to date heating degree days 155  
Since 1 July heating degree days 3696  
Cooling Degree Days 0    
Month to date cooling degree days 0  
Year to date cooling degree days 0  
Moisture  
Dew Point 30 °F    
Average Humidity 68    
Maximum Humidity 92    
Minimum Humidity 44    
Precipitation  
Precipitation 0.00 in 0.15 in 2.19 in (1967)
Month to date precipitation 1.69 0.91  
Year to date precipitation 7.35 10.13  
Sea Level Pressure  
Sea Level Pressure 30.08 in    
Wind  
Wind Speed 4 mph (NE)    
Max Wind Speed 15 mph    
Max Gust Speed 20 mph    
Visibility 10 miles    
Events      
T = Trace of Precipitation, MM = Missing Value Source: NWS Daily Summary

Daily Weather History Graph

Daily Weather History Graph

Search for Another Location

Airport or City:

Trip Planner

Search our weather history database for the weather conditions in past years. The results will help you decide how hot, cold, wet, or windy it might be!

Date:

Astronomy

Mar. 06, 2014 Rise Set
Actual Time 6:03 AM CST 5:39 PM CST
Civil Twilight 5:38 AM CST 6:05 PM CST
Nautical Twilight 5:08 AM CST 6:35 PM CST
Astronomical Twilight 4:38 AM CST 7:04 PM CST
Moon 9:21 AM CST (3/6) 11:33 PM CST (3/6)
Length of Visible Light 12h 27m
Length of Day
11h 36m
Waxing Crescent, 32% of the Moon is Illuminated
Mar 6
Waxing Crescent
Mar 8
First Quarter
Mar 16
Full
Mar 23
Last Quarter
Mar 30
New

Hourly Weather History & Observations

Time (CST) Temp. Windchill Dew Point Humidity Pressure Visibility Wind Dir Wind Speed Gust Speed Precip Events Conditions
12:53 AM 30.9 °F 27.5 °F 28.0 °F 89% 30.14 in 10.0 mi NE 3.5 mph - N/A   Clear
1:53 AM 32.0 °F - 28.0 °F 85% 30.13 in 9.0 mi Calm Calm - N/A   Clear
2:53 AM 32.0 °F - 28.9 °F 88% 30.10 in 9.0 mi Calm Calm - N/A   Clear
3:53 AM 32.0 °F - 28.9 °F 88% 30.09 in 9.0 mi Calm Calm - N/A   Clear
4:53 AM 30.0 °F - 27.0 °F 88% 30.11 in 8.0 mi Calm Calm - N/A   Clear
5:53 AM 28.9 °F - 26.1 °F 89% 30.13 in 7.0 mi Calm Calm - N/A   Clear
6:53 AM 30.9 °F - 28.0 °F 89% 30.14 in 7.0 mi Calm Calm - N/A   Clear
7:53 AM 35.1 °F 30.1 °F 28.9 °F 78% 30.16 in 10.0 mi NNE 5.8 mph - N/A   Clear
8:53 AM 41.0 °F 39.0 °F 30.9 °F 67% 30.17 in 10.0 mi Variable 3.5 mph - N/A   Clear
9:53 AM 46.0 °F 41.4 °F 26.1 °F 46% 30.15 in 10.0 mi ESE 9.2 mph - N/A   Clear
10:53 AM 46.9 °F - 27.0 °F 46% 30.13 in 10.0 mi SSE 4.6 mph - N/A   Clear
11:53 AM 48.9 °F - 30.0 °F 48% 30.10 in 10.0 mi East 3.5 mph - N/A   Clear
12:53 PM 51.1 °F - 28.9 °F 43% 30.08 in 10.0 mi NE 4.6 mph - N/A   Clear
1:53 PM 51.1 °F - 30.9 °F 46% 30.06 in 10.0 mi NNE 9.2 mph - N/A   Clear
2:53 PM 52.0 °F - 33.1 °F 49% 30.03 in 10.0 mi ENE 11.5 mph - N/A   Clear
3:53 PM 51.1 °F - 32.0 °F 48% 30.01 in 10.0 mi NE 9.2 mph - N/A   Scattered Clouds
4:53 PM 51.1 °F - 32.0 °F 48% 30.02 in 10.0 mi NE 8.1 mph - N/A   Clear
5:53 PM 48.0 °F - 33.1 °F 56% 30.03 in 10.0 mi NNE 6.9 mph - N/A   Partly Cloudy
6:53 PM 46.9 °F - 33.1 °F 59% 30.03 in 10.0 mi NNE 5.8 mph - N/A   Partly Cloudy
7:53 PM 45.0 °F 43.5 °F 33.1 °F 63% 30.03 in 10.0 mi NNE 3.5 mph - N/A   Overcast
8:53 PM 44.1 °F 41.5 °F 33.1 °F 65% 30.03 in 10.0 mi North 4.6 mph - N/A   Mostly Cloudy
9:53 PM 43.0 °F 41.3 °F 32.0 °F 65% 30.03 in 10.0 mi North 3.5 mph - N/A   Overcast
10:53 PM 39.9 °F 37.8 °F 30.9 °F 70% 30.02 in 10.0 mi NE 3.5 mph - N/A   Mostly Cloudy
11:53 PM 39.9 °F 37.8 °F 30.0 °F 68% 29.99 in 10.0 mi NNE 3.5 mph - N/A   Clear